Find Orsted

NORAD ID: 25635 Int'l Des: 1999-008 Owner: DMI Country: DK operational
LEORETROGRADE

現在のビュー

3D地球を読み込み中...

Orstedについて

説明を読み込み中...

次回通過

Passes for default location (London). Set your location on the main map for personalized predictions.

高度履歴

Loading altitude history...

軌道要素

1 25635U 99008B 26149.36497690 .00000466 00000-0 11134-3 0 9992
2 25635 96.4837 61.1542 0130286 246.7272 112.0170 14.51790618439234
Epoch: May 29, 2026 • Age: 20 hours

現在のステータス

高度 728.7 km
速度 7.49 km/s
衛星直下点 -25.68°S, 109.84°E
打ち上げ日 Feb 23, 1999
運用期間 27.2 years
タイプ other

技術仕様

分類 Payload
質量 62.00 kg
乾燥質量 62.00 kg
総質量 62.00 kg
長さ 0.80 m
直径 0.50 m
スパン 8.00 m
形状 Box + Ant
製造者 TERMAB
バスタイプ Orsted
フェーズステータス In Orbit
所有者/国 DMI/DK

Most Searched